[[{"header":{"parameterUnit":"m.s-1","parameterCategory":1,"la1":30.2991,"la2":30.254,"lo1":-89.0895,"lo2":-89.0444,"dy":0.0017,"dx":0.0017,"nx":28,"ny":28,"refTime":"2025-06-17T03:00:00:Z","depth":0,"parameterNumber":2,"parameterNumberName":"U-component_of_WINDS"},"data":[0,0,0,0,0,0,0,0,0,0,0,0,0,0,0,0,0,0,0,0,0,0,0,0,0,0,0,0,0,0,0,0,0,0,0,0,0,0,0,0,0,0,0,0,0,0,0,0,0,0,0,0,0,0,0,0,0,0,0.0263,0.0263,0,0.0211,0.021,0.021,0.0145,0.0144,0.0143,0.0142,0.0091,0.0091,0.009,0,0,0,0,0,0,0,0,0,0,0,0,0,0.0308,0.0308,0.0263,0.0263,0.0262,0.0211,0.021,0.021,0.0146,0.0144,0.0143,0.0142,0.0091,0.0091,0.009,0,0,0,0,0,0,0,0,0,0,0,0,0,0.0276,0.0307,0.0264,0.0224,0.022,0.0211,0.021,0.0209,0.0146,0.0144,0.0143,0.0141,0.0091,0.0091,0.009,0.0117,0,0,0.0088,0.0088,0,0,0,0,0,0,0,0,0.0278,0.0274,0.023,0.0227,0.0222,0.0183,0.0207,0.0178,0.0146,0.0174,0.0142,0.0141,0.0123,0.012,0.0113,0.0114,0.0112,0.0088,0.0088,0.0087,0.0087,0,0,0,0,0,0,0,0.028,0.0276,0.0243,0.023,0.0225,0.0209,0.0203,0.0201,0.0158,0.0172,0.0167,0.0161,0.012,0.0114,0.0112,0.0111,0.0088,0.0088,0.0087,0.0087,0.0129,0.013,0,0,0,0,0,0,0.0288,0.0278,0.0244,0.0241,0.0247,0.0209,0.0202,0.0197,0.0158,0.015,0.0163,0.0158,0.0116,0.0112,0.011,0.0136,0.0087,0.0087,0.0086,0.0127,0.0129,0.0131,0,0,0,0,0,0,0.0289,0.0286,0.0246,0.0258,0.0252,0.021,0.0205,0.0197,0.019,0.0151,0.0143,0.0164,0.0115,0.011,0.0115,0.0134,0.0087,0.0086,0.0126,0.0128,0.013,0.0192,0,0,0,0,0,0,0.0291,0.0286,0.0296,0.0259,0.0252,0.0253,0.0206,0.0197,0.0189,0.0183,0.015,0.0143,0.0113,0.0116,0.0114,0.0132,0.0085,0.0124,0.0127,0.0129,0.0188,0.0196,0.0203,0,0,0,0,0,0.0293,0.0317,0.0297,0.0293,0.0263,0.0254,0.025,0.0214,0.0191,0.02,0.0175,0.0144,0.0132,0.0117,0.0114,0.0132,0.0122,0.0126,0.0129,0.0184,0.0194,0.0202,0,0,0,0,0,0,0.0359,0.0311,0.0289,0.0302,0.0282,0.0243,0.0254,0.0226,0.0213,0.0208,0.0165,0.0158,0.0167,0.015,0.0134,0.0155,0.0122,0.0126,0.0166,0.0174,0.0182,0.0186,0.0085,0,0,0,0,0,0.0375,0.0371,0.033,0.0345,0.0336,0.0297,0.0292,0.0265,0.0244,0.0235,0.021,0.019,0.0182,0.0177,0.0167,0.0185,0.0176,0.0196,0.0203,0.0209,0.0213,0.0218,0.0226,0.0142,0.0142,0.0142,0,0,0.0408,0.0381,0.0382,0.0357,0.0339,0.0336,0.029,0.029,0.0286,0.0235,0.0237,0.0218,0.0193,0.0203,0.0207,0.0189,0.0234,0.0214,0.0219,0.0219,0.0223,0.0231,0.0238,0.0144,0.0144,0.0143,0,0,0.0467,0.0447,0.0456,0.0438,0.041,0.0384,0.0386,0.035,0.0335,0.0336,0.0297,0.0293,0.0279,0.0262,0.0252,0.0302,0.0273,0.03,0.0339,0.0345,0.0351,0.0357,0.0373,0.038,0.0303,0.0303,0.0303,0,0.0512,0.0505,0.0465,0.0465,0.0455,0.0407,0.0416,0.04,0.0372,0.0366,0.0346,0.0327,0.0307,0.0312,0.0323,0.0317,0.0318,0.0303,0.0354,0.0359,0.0364,0.0379,0.0385,0.0306,0.0306,0.0306,0.0305,0,0.0561,0.0556,0.0567,0.0539,0.053,0.0535,0.0495,0.0491,0.0465,0.044,0.044,0.0414,0.0397,0.0396,0.0372,0.0397,0.0387,0.0362,0.0328,0.0376,0.0389,0.0395,0.0311,0.031,0.0309,0.0308,0,0,0.0661,0.0608,0.0613,0.0598,0.0563,0.0559,0.0561,0.0543,0.0539,0.0521,0.0521,0.0509,0.0484,0.0473,0.0446,0.0451,0.049,0.0425,0.0423,0.0437,0.0514,0.0533,0.0541,0.047,0.0471,0.0472,0.0516,0,0.0712,0.0712,0.0675,0.0685,0.068,0.0633,0.0634,0.0613,0.0589,0.0581,0.0555,0.0547,0.0516,0.0508,0.0512,0.0485,0.0505,0.0481,0.047,0.047,0.0477,0.0548,0.0568,0.0611,0.0521,0.0522,0.0523,0,0.0773,0.0755,0.0765,0.0726,0.0723,0.0725,0.0704,0.0697,0.0671,0.0653,0.0639,0.0608,0.0606,0.0575,0.0572,0.0556,0.0549,0.0535,0.0536,0.0533,0.0499,0.0546,0.0624,0.063,0.0531,0.053,0.0529,0,0.0843,0.0822,0.0824,0.0814,0.077,0.0772,0.0754,0.0726,0.0717,0.0699,0.0692,0.0675,0.0666,0.0653,0.0617,0.0598,0.0618,0.0584,0.0603,0.0603,0.0609,0.0609,0.0686,0.0606,0.0606,0.0606,0.0605,0,0.0904,0.0911,0.0855,0.0857,0.0863,0.0819,0.0827,0.0804,0.078,0.0775,0.0734,0.0731,0.0685,0.0676,0.0648,0.0649,0.0645,0.0631,0.0623,0.0634,0.0636,0.0629,0.0625,0.0607,0.0607,0.0606,0.0606,0,0.0984,0.0947,0.0946,0.0904,0.0893,0.0899,0.0863,0.0862,0.0835,0.083,0.0827,0.0785,0.0772,0.0735,0.0714,0.0695,0.0704,0.069,0.0713,0.0708,0.0728,0.0726,0.0803,0.081,0.0726,0.0727,0.0728,0,0.1025,0.1029,0.0987,0.098,0.0964,0.0954,0.0944,0.0901,0.0892,0.0862,0.0864,0.0848,0.0833,0.0816,0.0783,0.0767,0.0751,0.0779,0.0749,0.0759,0.075,0.075,0.075,0.0786,0.0787,0.0788,0.0789,0,0.1102,0.1082,0.1069,0.1048,0.1037,0.1019,0.0999,0.0996,0.0948,0.094,0.0926,0.0914,0.0891,0.0876,0.0853,0.0834,0.0804,0.0798,0.0802,0.0813,0.0825,0.0817,0.073,0.0797,0.0796,0.0796,0.0795,0.0795,0.1162,0.1163,0.1132,0.1118,0.1098,0.108,0.1076,0.1048,0.1035,0.1012,0.0988,0.0977,0.0948,0.0915,0.0898,0.0888,0.0872,0.0877,0.0878,0.088,0.0884,0.0827,0.0884,0.0884,0.0884,0.0883,0.0883,0,0.1236,0.1213,0.12,0.1172,0.1161,0.1131,0.1107,0.1099,0.1089,0.1065,0.1051,0.1034,0.1018,0.0984,0.0964,0.0963,0.0948,0.0959,0.0959,0.0955,0.0901,0.0899,0.0971,0.0971,0.0971,0.0971,0.0971,0.0971,0.1272,0.1271,0.1248,0.1236,0.1213,0.1201,0.1189,0.1171,0.1152,0.1134,0.112,0.1098,0.1069,0.1047,0.1031,0.1021,0.1015,0.1031,0.1017,0.0967,0.0959,0.0951,0.0949,0.103,0.103,0.1071,0.1071,0.1072]},{"header":{"parameterUnit":"m.s-1","parameterCategory":1,"la1":30.2991,"la2":30.254,"lo1":-89.0895,"lo2":-89.0444,"dy":0.0017,"dx":0.0017,"nx":28,"ny":28,"refTime":"2025-06-17T03:00:00:Z","depth":0,"parameterNumber":3,"parameterNumberName":"V-component_of_WINDS"},"data":[0,0,0,0,0,0,0,0,0,0,0,0,0,0,0,0,0,0,0,0,0,0,0,0,0,0,0,0,0,0,0,0,0,0,0,0,0,0,0,0,0,0,0,0,0,0,0,0,0,0,0,0,0,0,0,0,0,0,6.1493,6.1495,0,6.1672,6.1674,6.1676,6.1655,6.1652,6.1649,6.1647,6.1819,6.1826,6.1833,0,0,0,0,0,0,0,0,0,0,0,0,0,6.1124,6.1131,6.1493,6.1495,6.1498,6.1671,6.1674,6.1676,6.1655,6.1652,6.1649,6.1645,6.1817,6.1825,6.1834,0,0,0,0,0,0,0,0,0,0,0,0,0,6.1291,6.1133,6.1493,6.1508,6.1512,6.1671,6.1674,6.1677,6.1656,6.1652,6.1648,6.1644,6.1814,6.1825,6.1835,6.1987,0,0,6.1868,6.1873,0,0,0,0,0,0,0,0,6.1282,6.1305,6.1504,6.1508,6.1512,6.1637,6.1607,6.1781,6.1657,6.1601,6.1647,6.1642,6.1761,6.1776,6.1819,6.1995,6.2003,6.1869,6.1876,6.1881,6.1884,0,0,0,0,0,0,0,6.127,6.1297,6.1563,6.1507,6.1512,6.1503,6.1522,6.164,6.1702,6.1606,6.1605,6.1626,6.1762,6.1808,6.1823,6.2005,6.1869,6.1879,6.1885,6.189,6.2311,6.2316,0,0,0,0,0,0,6.1256,6.1287,6.1558,6.1569,6.1384,6.1513,6.1535,6.1601,6.1701,6.1713,6.163,6.1625,6.1792,6.181,6.1829,6.201,6.1881,6.1891,6.1897,6.2307,6.2313,6.2318,0,0,0,0,0,0,6.1248,6.128,6.1551,6.1428,6.1462,6.1524,6.1599,6.1607,6.1652,6.172,6.173,6.1666,6.1789,6.1813,6.1948,6.2016,6.1896,6.1905,6.2301,6.2309,6.2315,6.2377,0,0,0,0,0,0,6.1238,6.1278,6.1339,6.143,6.1469,6.167,6.1603,6.1613,6.1672,6.1667,6.1756,6.1767,6.1788,6.1932,6.1959,6.2029,6.1914,6.2295,6.2305,6.2313,6.2369,6.2385,6.2399,0,0,0,0,0,6.1225,6.1348,6.1342,6.1375,6.1547,6.1674,6.1696,6.1721,6.1678,6.1738,6.1781,6.1764,6.2005,6.1946,6.1976,6.205,6.2291,6.2302,6.2312,6.2362,6.2382,6.2399,0,0,0,0,0,0,6.126,6.136,6.1355,6.1511,6.1585,6.1671,6.1747,6.1742,6.1826,6.1817,6.1842,6.1862,6.1997,6.2037,6.1969,6.2201,6.2142,6.2159,6.2169,6.2189,6.2204,6.2189,6.1923,0,0,0,0,0,6.1287,6.1385,6.1466,6.1596,6.1634,6.1684,6.1741,6.1754,6.1829,6.1859,6.1912,6.1983,6.2075,6.2134,6.2223,6.2376,6.2392,6.2441,6.2456,6.2468,6.2482,6.2562,6.2584,6.2352,6.2352,6.2352,0,0,6.1341,6.1408,6.1468,6.1605,6.1663,6.1761,6.171,6.1817,6.1888,6.1874,6.2005,6.2046,6.2127,6.227,6.2336,6.2308,6.255,6.2482,6.2491,6.2498,6.2575,6.2597,6.2616,6.2359,6.2358,6.2357,0,0,6.149,6.1553,6.1667,6.1727,6.1817,6.185,6.1877,6.1964,6.1992,6.2124,6.2115,6.2199,6.2357,6.2414,6.2464,6.2634,6.262,6.2662,6.2739,6.2817,6.2836,6.2852,6.2909,6.293,6.2676,6.2676,6.2676,0,6.1546,6.1697,6.1725,6.1833,6.1891,6.1887,6.2,6.2056,6.2169,6.2208,6.2176,6.2373,6.2427,6.2583,6.2624,6.2666,6.2694,6.2651,6.2831,6.2848,6.2863,6.2918,6.294,6.268,6.268,6.2679,6.2679,0,6.1758,6.1863,6.1944,6.2056,6.2124,6.2234,6.2275,6.234,6.2347,6.2382,6.2514,6.258,6.2679,6.2718,6.2725,6.2874,6.2853,6.2827,6.2767,6.2889,6.2941,6.2962,6.2686,6.2685,6.2684,6.2683,0,0,6.1933,6.206,6.2089,6.2139,6.2238,6.2317,6.2425,6.2527,6.258,6.2658,6.2746,6.288,6.2856,6.2912,6.2925,6.2995,6.3121,6.2959,6.2961,6.2984,6.3285,6.3302,6.3326,6.3114,6.3118,6.3121,6.3277,0,6.2089,6.2284,6.2313,6.2483,6.2577,6.2574,6.2668,6.2736,6.2772,6.2854,6.2892,6.2985,6.2948,6.2982,6.305,6.3091,6.3181,6.3081,6.3192,6.3195,6.3169,6.3354,6.3373,6.3516,6.3297,6.3301,6.3303,0,6.2298,6.2384,6.2564,6.2649,6.2689,6.2774,6.2867,6.2948,6.3024,6.3045,6.3108,6.3113,6.322,6.3159,6.3305,6.3236,6.3284,6.331,6.3316,6.3325,6.3255,6.3364,6.3563,6.3583,6.3336,6.3334,6.3331,0,6.2402,6.2564,6.2692,6.2735,6.2838,6.2896,6.2941,6.3014,6.3072,6.3153,6.319,6.3282,6.3331,6.34,6.3427,6.3381,6.3571,6.3512,6.3587,6.3587,6.3625,6.3622,6.3831,6.3661,6.3661,6.366,6.366,0,6.2572,6.2681,6.274,6.2818,6.294,6.297,6.3088,6.3131,6.3195,6.3279,6.3282,6.3359,6.3393,6.3475,6.3497,6.3613,6.3635,6.3652,6.3656,6.365,6.3648,6.3679,6.3668,6.3666,6.3665,6.3664,6.3663,0,6.2708,6.2753,6.2892,6.2978,6.3002,6.3088,6.316,6.3234,6.3269,6.3375,6.3401,6.3455,6.3551,6.3587,6.3704,6.3718,6.3851,6.3849,6.3826,6.3826,6.3898,6.389,6.4133,6.4165,6.3976,6.3978,6.398,0,6.2812,6.2897,6.2993,6.3051,6.3098,6.3191,6.3251,6.3284,6.3345,6.3438,6.35,6.3597,6.3676,6.383,6.3877,6.3965,6.3963,6.4042,6.3975,6.3966,6.396,6.3953,6.396,6.4053,6.4055,6.4056,6.4057,0,6.299,6.3008,6.3096,6.3192,6.3264,6.334,6.3414,6.346,6.3503,6.3572,6.3672,6.3734,6.3854,6.3948,6.4039,6.4081,6.4075,6.4079,6.41,6.4093,6.4075,6.4083,6.3856,6.4072,6.407,6.4069,6.4069,6.4068,6.3111,6.3185,6.3264,6.3362,6.3421,6.349,6.3563,6.3609,6.3694,6.3796,6.3809,6.3916,6.3988,6.411,6.4156,6.4237,6.4215,6.4247,6.4255,6.4261,6.4265,6.4066,6.4254,6.4254,6.4254,6.4253,6.4253,0,6.3286,6.3338,6.3427,6.3531,6.3607,6.36,6.368,6.3743,6.3838,6.3907,6.3985,6.4099,6.4191,6.4246,6.4337,6.4391,6.439,6.4414,6.4408,6.4417,6.4281,6.4252,6.4412,6.4412,6.4412,6.4412,6.4412,6.4412,6.3386,6.351,6.3537,6.3689,6.3739,6.3846,6.3892,6.3954,6.4009,6.4137,6.4215,6.4251,6.4314,6.4409,6.4492,6.4505,6.4537,6.4562,6.4573,6.4444,6.4427,6.4411,6.4384,6.4569,6.457,6.4702,6.4703,6.4704]}]]